Weather in Konovalovka

Russia / Samara Oblast     53°06′16″N   51°32′26″E
temp.,
°C
wind,
m/s
gust,
m/s
humid.,
%
clouds,
%
prec.,
mm/h
press.,
hPa
HPBL,
m
29 june, wed
wed2901:00+9n36770 0.0 101698
04:00+8n36795 0.0 1016100
07:00+10n57745 0.0 1017530
10:00+13n5761100 0.0 10171386
13:00+12n5665100 0.0 10181345
16:00+14n5763100 0.1 10171452
19:00+14n2672100 0.0 1017806
22:00+13w1164100 0.0 101616
30 june, thu
thu3001:00+12w3671100 0.0 1015160
04:00+11w347568 0.0 1015109
07:00+13nw34740 0.0 1014227
10:00+18wnw345872 0.0 10131020
13:00+20nw4549100 0.0 10122130
16:00+20nw575292 0.0 10111796
19:00+18nw346473 0.0 1010167
22:00+15nw337033 0.2 101048
1 july, fri
fri101:00+11w338447 0.2 100929
04:00+10wnw369198 0.6 1008139
07:00+11nnw3694100 1.0 1008506
10:00+12nw2379100 3.2 1009659
13:00+13n5579100 0.7 1009690
16:00+14n446842 0.8 1009977
19:00+13nnw347578 0.1 1009422
22:00+10n359020 0.1 1009142
2 july, sat
sat201:00+9nne2392100 0.0 100950
04:00+10n3697100 0.4 1008167
07:00+11ne3694100 1.4 1009238
10:00+14ne5985100 1.5 1008502
13:00+19ne61062100 0.4 10071407
16:00+19ese4768100 2.8 1007798
19:00+15sw228393 2.6 1007179
22:00+13nne338787 3.5 100741
3 july, sun
sun301:00+12n499275 0.0 1007161
04:00+12n511923 0.0 1007208
07:00+15n511835 0.0 1007356
10:00+19n68640 0.0 1007847
13:00+22n675323 0.0 10072080
16:00+22n785718 0.1 10071770
19:00+19nnw487796 0.7 1007417
22:00+15nw359121 1.3 100896